TRA31AP EGLL-EHAM

Flight info

Callsign TRA31AP
Flight time N/A
Altitude 27000
Route BPK Q295 BRAIN M197 REDFA
Aircraft A320/M-SDE3FGHIRWY/LB1

Departure

Time 2026-05-07 15:42
Airport London Heathrow Airport (EGLL)

Arrival

Time N/A
Airport Amsterdam Airport Schiphol (EHAM)
Time Latitude Longitude Altitude Speed Heading
2026-05-07 15:17 51.46827 -0.45112 86 ft 0 kts 359°
2026-05-07 15:31 51.46826 -0.45112 86 ft 1 kts 359°
2026-05-07 15:31 51.46801 -0.45112 86 ft 4 kts 359°
2026-05-07 15:31 51.46779 -0.45111 86 ft 4 kts 346°
2026-05-07 15:32 51.46758 -0.45092 89 ft 4 kts 298°
2026-05-07 15:32 51.46751 -0.45052 86 ft 4 kts 271°
2026-05-07 15:32 51.46751 -0.45011 86 ft 3 kts 269°
2026-05-07 15:32 51.46751 -0.45004 86 ft 0 kts 269°
2026-05-07 15:35 51.46751 -0.45017 86 ft 2 kts 269°
2026-05-07 15:35 51.46751 -0.45058 86 ft 5 kts 269°
2026-05-07 15:35 51.46751 -0.45125 87 ft 7 kts 269°
2026-05-07 15:36 51.46750 -0.45216 86 ft 9 kts 269°
2026-05-07 15:36 51.46750 -0.45330 86 ft 11 kts 269°
2026-05-07 15:36 51.46749 -0.45466 86 ft 13 kts 270°
2026-05-07 15:36 51.46749 -0.45624 86 ft 15 kts 269°
2026-05-07 15:37 51.46748 -0.45805 86 ft 17 kts 270°
2026-05-07 15:37 51.46748 -0.46010 86 ft 19 kts 270°
2026-05-07 15:37 51.46747 -0.46237 88 ft 21 kts 269°
2026-05-07 15:37 51.46748 -0.46486 86 ft 23 kts 270°
2026-05-07 15:38 51.46748 -0.46762 86 ft 26 kts 269°
2026-05-07 15:38 51.46747 -0.47061 89 ft 28 kts 270°
2026-05-07 15:38 51.46746 -0.47343 86 ft 17 kts 270°
2026-05-07 15:38 51.46745 -0.47549 86 ft 19 kts 269°
2026-05-07 15:39 51.46744 -0.47765 86 ft 16 kts 270°
2026-05-07 15:39 51.46744 -0.47903 86 ft 11 kts 269°
2026-05-07 15:39 51.46743 -0.48022 86 ft 11 kts 269°
2026-05-07 15:39 51.46743 -0.48139 86 ft 8 kts 269°
2026-05-07 15:40 51.46707 -0.48210 89 ft 10 kts 196°
2026-05-07 15:40 51.46637 -0.48213 86 ft 7 kts 180°
2026-05-07 15:40 51.46603 -0.48213 87 ft 5 kts 179°
2026-05-07 15:40 51.46566 -0.48212 87 ft 6 kts 179°
2026-05-07 15:41 51.46522 -0.48212 88 ft 7 kts 179°
2026-05-07 15:41 51.46484 -0.48178 88 ft 8 kts 115°
2026-05-07 15:41 51.46480 -0.48068 87 ft 13 kts 89°
2026-05-07 15:41 51.46482 -0.47602 85 ft 76 kts 89°
2026-05-07 15:42 51.46486 -0.46427 92 ft 132 kts 90°
2026-05-07 15:42 51.46493 -0.44816 467 ft 139 kts 89°
2026-05-07 15:42 51.46505 -0.43332 1088 ft 134 kts 90°
2026-05-07 15:42 51.46554 -0.41729 1327 ft 154 kts 77°
2026-05-07 15:43 51.47034 -0.40117 1623 ft 172 kts 51°
2026-05-07 15:43 51.47884 -0.38546 1834 ft 198 kts 50°
2026-05-07 15:43 51.48820 -0.36774 2165 ft 220 kts 50°
2026-05-07 15:43 51.49870 -0.34787 2527 ft 246 kts 50°
2026-05-07 15:44 51.51022 -0.32608 3088 ft 265 kts 50°
2026-05-07 15:44 51.52190 -0.30293 4012 ft 268 kts 57°
2026-05-07 15:44 51.52978 -0.27585 4997 ft 268 kts 71°
2026-05-07 15:44 51.53576 -0.24723 5727 ft 274 kts 72°
2026-05-07 15:45 51.54406 -0.21989 6008 ft 272 kts 50°
2026-05-07 15:45 51.55909 -0.20169 6433 ft 274 kts 21°
2026-05-07 15:45 51.57785 -0.19660 6853 ft 276 kts 356°
2026-05-07 15:45 51.59704 -0.19973 7258 ft 278 kts 352°
2026-05-07 15:46 51.63566 -0.19864 8244 ft 285 kts 24°
2026-05-07 15:46 51.65169 -0.18021 8770 ft 287 kts 50°
2026-05-07 15:46 51.66379 -0.15493 9354 ft 291 kts 56°
2026-05-07 15:47 51.67569 -0.12779 10166 ft 295 kts 56°
2026-05-07 15:47 51.68774 -0.10013 10448 ft 317 kts 56°
2026-05-07 15:47 51.70081 -0.06996 10714 ft 337 kts 57°
2026-05-07 15:47 51.71109 -0.03573 11273 ft 342 kts 75°
2026-05-07 15:48 51.71702 0.00154 11954 ft 345 kts 77°
2026-05-07 15:48 51.72277 0.03935 12665 ft 349 kts 78°
2026-05-07 15:48 51.72848 0.07753 13371 ft 352 kts 78°
2026-05-07 15:49 51.73734 0.13729 14400 ft 357 kts 78°
2026-05-07 15:49 51.74315 0.17649 14997 ft 361 kts 78°
2026-05-07 15:49 51.74902 0.21615 15583 ft 365 kts 78°